User: anonymous   Login
Location: Mactaquac Provincial Park
(45.9573°N, 66.8897°W)
Time: 08:04:38
(UTC-03:00)
Language:

Cosmos 1766 - Orbit

View from above orbital plane
View from above orbital plane
View from above satellite
View from above satellite

Ground track
Ground track

The orbit data is extracted from the following two-line orbital elements,

1 16881U 86055A   15187.52555334  .00001576  00000-0  99408-4 0  9995
2 16881 082.5069 359.0952 0015372 013.2766 346.8863 15.08338888574086
Epoch (UTC): 06 July 2015 12:36:47
Eccentricity: 0.0015372
inclination: 82.5069°
perigee height: 530 km
apogee height: 552 km
right ascension of ascending node: 359.0952°
argument of perigee: 13.2766°
revolutions per day: 15.08338888
mean anomaly at epoch: 346.8863°
orbit number at epoch: 57408

The dashed part of the orbit path shows where the satellite is in the earth's shadow,  

DLR